Starlink 5456

operational
NORAD ID: 55667 Int'l Des: 2023-021 Owner: SPXS Country: US Constellation: starlink
LEOCIRCULAR

Starlink 5456について

説明を読み込み中...

リアルタイム位置

3D地球を読み込み中...

次回通過

高度履歴

Altitude vs Time

uPlot chart will show altitude changes over time

軌道要素

1 55667U 23021AR 25308.48951816 -.00000899 00000-0 -67530-4 0 9990
2 55667 69.9982 120.0164 0002979 270.0250 90.0567 14.98335378150533
Epoch: Nov 4, 2025 • Age: 7 hours

現在のステータス

高度 584.7 km
速度 7.57 km/s
衛星直下点 65.11°N, 75.64°W
打ち上げ日 Feb 17, 2023
運用期間 2.7 years
タイプ internet

技術仕様

分類 Payload
質量 305.00 kg
乾燥質量 290.00 kg
総質量 305.00 kg
長さ 0.20 m
直径 2.80 m
スパン 9.00 m
形状 Box + pan
製造者 SPXS
バスタイプ Starlink
フェーズステータス In Orbit
所有者/国 SPXS/US

大規模コンステレーション

Loading constellations...